User: anonymous   Login
Location: Unspecified
(0.0000°N, 0.0000°E)
Time: 08:49:20
(UTC+02:00)
Language:

Cosmos 1833 Rocket - Orbit

View from above orbital plane
View from above orbital plane
View from above satellite
View from above satellite

Ground track
Ground track

The orbit data is extracted from the following two-line orbital elements,

1 17590U 87027B   15244.89257630 +.00000223 +00000-0 +13532-3 0  9996
2 17590 071.0019 087.7128 0006694 235.1380 124.9115 14.16702705471224
Epoch (UTC): 01 September 2015 21:25:18
Eccentricity: 0.0006694
inclination: 71.0019°
perigee height: 831 km
apogee height: 841 km
right ascension of ascending node: 87.7128°
argument of perigee: 235.1380°
revolutions per day: 14.16702705
mean anomaly at epoch: 124.9115°
orbit number at epoch: 47122

The dashed part of the orbit path shows where the satellite is in the earth's shadow,  

DLR